Вернуться в каталог

STARLINK-3899

АктивенСвязьVLEO
NORAD 52457·PAYLOAD·🇺🇸 United States

Запущен May 6, 2022 с Cape Canaveral Space Force Station

Loading…

Ближайшие Пролёты (ближайшие 24 часа)

TLE

СвежийSource: CelesTrak SupGP

Эпоха: Sep 15, 2026, 01:14 UTC

1 52457C 22049G   26258.05187500  .00742580  00000+0  23507-1 0  2580
2 52457  53.1592 295.5589 0001314  96.3531 167.0378 15.31833288    14

Отслеживайте STARLINK-3899 в реальном времени с AllMySat

Download on the App Store